Find Starlink 33762

NORAD ID: 63442 Int'l Des: 2025-069 Owner: SPXS Country: US Constellation: starlink operational
LEOCIRCULAR

リアルタイム位置

3D地球を読み込み中...

Starlink 33762について

説明を読み込み中...

次回通過

Passes for default location (London). Set your location on the main map for personalized predictions.

高度履歴

Loading altitude history...

軌道要素

1 63442U 25069K 26124.06705859 .00067681 00000-0 15499-2 0 9994
2 63442 53.1616 244.5168 0001386 88.5926 271.5239 15.42182682 61891
Epoch: May 4, 2026 • Age: 15 hours

現在のステータス

高度 443.4 km
速度 7.65 km/s
衛星直下点 45.60°N, 92.11°W
打ち上げ日 Apr 4, 2025
運用期間 1 years
タイプ internet

技術仕様

分類 Payload
質量 575.00 kg
乾燥質量 530.00 kg
総質量 575.00 kg
長さ 0.30 m
直径 4.10 m
スパン 29.00 m
形状 Box + pan
製造者 SPXS
バスタイプ Starlink V2MO
フェーズステータス In Orbit
所有者/国 SPXS/US

Most Searched